Temperature
-5 -4 -4 -4 -4 -5 -6 -6 -6 -6 -6 -6 -7 -7 -6 -6 -7 -7 -7 -6 -6 -5 -5 -4 -4 -4 -3 -3 -2 -2 -2 -1 -1 -0 0 1 1 2 2 3 3 3 4 4
-5 -4 -4 -4 -5 -5 -5 -6 -6 -6 -6 -7 -7 -7 -7 -7 -7 -7 -7 -7 -6 -6 -6 -5 -5 -4 -4 -4 -3 -3 -2 -2 -1 -1 -0 0 1 1 1 2 2 3 3 3
-6 -6 -5 -6 -6 -6 -6 -7 -7 -7 -7 -8 -8 -7 -7 -7 -7 -7 -8 -7 -7 -6 -6 -6 -5 -5 -5 -4 -4 -4 -3 -3 -2 -2 -1 -1 -0 0 1 1 2 2 2 3
-6 -6 -7 -6 -7 -7 -7 -8 -8 -8 -8 -8 -8 -7 -7 -7 -7 -8 -8 -8 -7 -7 -6 -6 -6 -5 -5 -5 -4 -4 -4 -3 -3 -3 -2 -2 -1 -0 -0 0 1 1 2 2
-7 -7 -7 -7 -7 -7 -8 -8 -8 -9 -8 -8 -8 -8 -7 -7 -8 -8 -8 -8 -7 -7 -7 -6 -6 -6 -5 -5 -5 -5 -5 -4 -4 -3 -3 -2 -2 -1 -1 -0 0 1 1 1
-8 -7 -7 -7 -7 -7 -7 -8 -8 -8 -8 -8 -8 -9 -8 -8 -8 -8 -8 -8 -7 -7 -7 -6 -6 -6 -6 -6 -6 -5 -5 -5 -4 -4 -3 -3 -2 -2 -2 -1 -1 -0 0 0
-9 -9 -8 -8 -8 -7 -8 -8 -7 -8 -8 -8 -9 -9 -8 -8 -8 -8 -8 -8 -8 -8 -7 -7 -7 -7 -6 -6 -6 -6 -6 -5 -5 -4 -4 -3 -3 -3 -2 -2 -1 -1 -1 -0
-9 -9 -8 -8 -8 -8 -8 -7 -7 -8 -8 -8 -8 -8 -9 -9 -9 -9 -8 -8 -8 -8 -8 -7 -7 -7 -7 -7 -7 -6 -6 -6 -5 -5 -4 -4 -4 -3 -3 -3 -2 -2 -1 -1
-9 -8 -7 -7 -7 -7 -7 -7 -7 -8 -8 -8 -9 -9 -9 -9 -9 -9 -9 -9 -8 -8 -8 -8 -8 -8 -7 -7 -7 -7 -6 -6 -6 -5 -5 -5 -4 -4 -3 -3 -3 -2 -2 -2
-9 -9 -8 -7 -7 -7 -7 -7 -8 -8 -8 -9 -9 -9 -9 -9 -9 -9 -9 -9 -9 -9 -9 -8 -8 -8 -8 -8 -7 -7 -7 -6 -6 -6 -5 -5 -5 -4 -4 -4 -3 -3 -3 -3
-9 -9 -8 -7 -7 -7 -7 -8 -8 -8 -9 -9 -9 -9 -9 -9 -9 -9 -9 -9 -9 -9 -9 -9 -9 -8 -8 -8 -8 -7 -7 -7 -7 -7 -6 -6 -5 -5 -5 -4 -4 -4 -3 -3
-9 -8 -8 -7 -7 -7 -8 -8 -8 -9 -9 -9 -9 -10 -10 -10 -10 -10 -10 -9 -9 -9 -9 -9 -9 -9 -8 -8 -8 -8 -8 -8 -8 -7 -7 -7 -6 -6 -5 -5 -5 -4 -4 -4
-7 -7 -7 -8 -8 -8 -8 -9 -9 -9 -9 -10 -10 -10 -10 -10 -10 -10 -10 -10 -9 -9 -9 -9 -9 -9 -9 -9 -8 -8 -8 -8 -8 -8 -8 -8 -7 -7 -6 -5 -5 -5 -5 -4
-8 -8 -8 -8 -8 -9 -9 -9 -9 -10 -10 -10 -10 -10 -10 -10 -10 -10 -10 -10 -10 -10 -10 -10 -10 -9 -9 -9 -9 -9 -9 -9 -9 -8 -8 -8 -8 -7 -7 -7 -6 -6 -5 -5
-8 -9 -9 -9 -9 -9 -10 -10 -10 -10 -10 -10 -10 -11 -11 -11 -10 -10 -10 -10 -10 -10 -10 -10 -10 -10 -9 -9 -9 -9 -9 -9 -9 -9 -8 -8 -8 -8 -8 -8 -7 -7 -6 -6
-9 -9 -9 -10 -10 -10 -10 -11 -11 -11 -11 -11 -11 -11 -11 -11 -11 -11 -11 -11 -10 -10 -10 -10 -10 -10 -10 -10 -10 -9 -9 -9 -9 -9 -9 -9 -9 -9 -9 -8 -8 -8 -7 -7
-10 -10 -10 -10 -10 -10 -11 -11 -11 -11 -11 -11 -11 -11 -11 -11 -11 -11 -11 -11 -11 -11 -10 -10 -10 -10 -10 -10 -10 -10 -10 -9 -9 -9 -9 -9 -9 -9 -9 -9 -9 -8 -8 -8
-10 -10 -10 -10 -11 -11 -11 -11 -11 -11 -11 -11 -12 -11 -11 -11 -11 -11 -11 -11 -11 -11 -10 -10 -10 -10 -10 -10 -10 -10 -10 -10 -10 -10 -10 -10 -10 -10 -9 -9 -9 -9 -9 -8
-10 -10 -10 -10 -11 -11 -11 -11 -11 -11 -12 -12 -12 -12 -12 -12 -12 -12 -11 -11 -11 -11 -11 -11 -11 -11 -10 -10 -11 -10 -10 -10 -10 -10 -10 -10 -10 -10 -10 -10 -10 -10 -9 -9
-10 -10 -10 -11 -11 -11 -11 -11 -12 -12 -12 -12 -12 -12 -12 -12 -12 -12 -12 -12 -12 -12 -12 -11 -11 -11 -11 -11 -11 -11 -11 -11 -11 -11 -11 -11 -10 -10 -10 -10 -10 -10 -10 -10
-10 -10 -11 -11 -11 -11 -12 -12 -12 -12 -12 -12 -12 -12 -12 -12 -12 -12 -12 -12 -12 -12 -12 -12 -12 -11 -11 -11 -11 -11 -11 -11 -11 -11 -11 -11 -11 -11 -11 -11 -11 -10 -10 -10
-10 -11 -11 -11 -11 -11 -12 -12 -12 -12 -12 -12 -12 -13 -12 -12 -12 -12 -12 -12 -12 -12 -12 -12 -12 -12 -12 -12 -12 -12 -12 -12 -12 -12 -12 -11 -11 -11 -11 -11 -11 -11 -10 -10
-11 -11 -11 -11 -12 -12 -12 -12 -12 -12 -13 -13 -13 -13 -13 -13 -13 -13 -13 -12 -13 -12 -12 -12 -12 -12 -12 -12 -12 -12 -12 -12 -12 -12 -12 -12 -12 -11 -11 -11 -11 -11 -11 -11
-11 -11 -12 -12 -12 -12 -12 -12 -13 -13 -13 -13 -13 -13 -13 -13 -13 -13 -13 -13 -13 -13 -13 -13 -13 -12 -12 -12 -12 -12 -12 -12 -12 -12 -12 -12 -12 -12 -11 -11 -11 -11 -11 -11
-12 -12 -12 -12 -12 -12 -13 -13 -13 -13 -13 -13 -13 -13 -13 -13 -13 -13 -13 -13 -13 -13 -13 -13 -13 -13 -13 -13 -12 -12 -12 -12 -12 -12 -12 -12 -12 -12 -12 -12 -12 -12 -11 -11
-12 -12 -12 -13 -13 -13 -13 -13 -13 -13 -13 -13 -13 -13 -13 -13 -13 -13 -13 -13 -13 -13 -13 -13 -13 -13 -13 -13 -13 -13 -13 -13 -13 -12 -12 -12 -12 -12 -12 -12 -12 -12 -12 -12
-12 -12 -13 -13 -13 -13 -13 -14 -14 -14 -14 -14 -14 -14 -14 -14 -14 -14 -14 -14 -14 -14 -13 -13 -13 -13 -13 -13 -13 -13 -13 -13 -13 -13 -13 -13 -12 -12 -12 -12 -12 -12 -12 -12
Wind_Speed
3 4 2 3 5 2 1 2 4 5 5 6 6 7 8 7 8 9 9 10 11 10 9 10 10 9 9 9 9 8 7 6 5 5 5 4 4 4 4 3 3 3 2 3
4 3 3 5 5 3 1 1 2 4 6 4 6 5 7 7 8 9 9 11 11 11 10 11 10 10 9 9 9 8 7 7 6 5 5 4 4 3 3 3 3 3 3 2
3 6 5 4 4 1 1 1 2 4 5 6 7 8 8 8 8 8 10 10 11 10 10 10 10 9 8 9 9 8 7 7 6 6 5 5 5 4 3 3 3 3 3 3
2 4 3 5 1 1 2 2 2 3 5 5 7 8 6 4 5 8 10 11 10 10 10 10 9 8 8 8 7 7 7 7 6 6 5 5 4 4 4 4 3 3 3 4
0 2 6 5 2 1 2 4 2 3 6 7 7 5 4 3 6 7 8 9 9 9 9 9 9 8 7 7 6 6 7 7 7 6 5 5 5 5 4 4 4 3 3 3
1 1 4 5 4 3 0 4 3 3 6 7 6 5 6 7 9 9 9 8 9 8 8 8 9 7 6 6 6 7 8 8 7 6 5 5 5 5 5 4 4 3 3 3
3 4 6 5 3 2 1 5 4 4 5 5 4 5 8 10 9 8 8 9 8 8 8 8 9 7 6 6 7 8 8 7 6 5 5 5 5 5 4 3 3 3 3 3
3 3 7 3 2 3 6 4 4 4 5 5 7 8 8 9 9 10 9 9 9 8 9 8 8 6 7 7 8 7 7 6 6 5 5 4 4 4 4 3 3 3 3 3
6 7 4 3 4 4 3 3 4 4 6 6 7 8 9 9 9 9 9 9 8 8 9 8 8 6 7 8 8 7 7 7 6 6 5 4 4 4 3 3 3 3 3 3
4 6 5 5 4 4 3 5 5 5 6 5 6 7 8 8 8 8 9 8 8 8 9 9 9 8 7 8 7 7 7 7 6 5 5 4 4 4 3 3 3 3 3 3
5 6 5 5 5 5 5 5 5 5 5 5 6 7 7 7 8 7 8 8 7 7 8 9 9 8 8 8 7 7 7 6 6 6 5 4 4 3 4 4 4 4 3 3
6 5 4 6 5 4 5 6 6 6 6 6 5 7 7 7 7 7 7 7 8 8 8 9 8 8 8 7 7 6 6 6 5 5 4 4 4 4 6 5 6 5 4 4
6 4 5 6 4 3 4 5 5 5 6 6 6 6 6 7 6 6 7 7 8 8 8 8 8 8 8 8 7 6 6 6 5 5 4 4 4 4 5 5 6 5 5 4
4 3 4 4 4 4 4 5 4 4 4 5 5 5 5 6 6 6 7 7 7 8 8 8 8 8 8 7 7 6 6 7 6 4 4 4 4 4 3 3 4 4 5 6
4 3 5 5 4 4 3 3 4 4 5 5 5 5 5 6 7 7 7 7 7 7 7 7 8 9 8 6 6 6 5 5 5 4 4 4 4 3 3 3 3 4 4 5
4 4 3 4 5 4 4 4 4 6 5 5 5 6 6 6 7 7 7 6 6 8 8 7 8 8 7 6 6 5 5 8 7 5 4 4 3 3 3 3 3 4 4 4
3 4 4 5 6 5 5 5 5 5 5 6 6 6 6 6 7 7 7 7 7 7 7 7 8 8 7 6 5 4 4 6 8 6 4 3 3 3 3 3 3 4 4 5
5 5 5 5 5 5 5 5 5 5 5 6 6 5 5 6 7 8 8 7 7 7 7 7 7 7 6 6 4 4 4 4 4 4 4 4 3 3 3 3 3 4 4 4
4 4 4 4 4 4 4 5 5 5 5 5 5 6 6 6 7 8 7 7 7 8 8 8 10 8 6 7 6 3 3 4 4 4 3 5 5 4 3 3 3 4 4 4
3 3 4 4 4 3 4 5 5 5 5 5 5 5 6 7 7 7 6 6 6 6 7 8 7 6 6 6 6 3 3 3 3 4 3 3 3 3 3 3 3 3 3 3
4 4 4 4 4 4 4 4 4 5 5 5 5 6 7 7 6 6 5 6 7 7 7 9 6 5 5 5 6 3 3 3 3 3 3 3 3 3 3 3 3 3 3 3
3 3 4 4 4 5 5 4 4 5 5 5 5 6 6 7 6 6 5 5 7 9 6 5 5 7 7 7 3 3 3 3 3 3 3 3 3 3 3 3 3 3 3 3
3 3 4 4 4 5 5 4 5 5 5 6 6 6 6 6 5 5 6 5 5 9 6 5 7 10 10 5 3 3 3 3 3 3 3 3 3 3 3 4 3 3 3 3
3 3 4 4 3 4 5 5 5 5 5 6 5 5 5 5 5 4 5 8 10 9 5 7 10 10 9 4 3 3 3 3 3 3 3 3 3 3 3 3 4 4 4 4
3 4 3 4 4 4 5 5 5 5 5 5 5 5 4 4 4 5 5 6 9 8 5 7 10 10 6 3 3 4 3 4 4 3 3 3 3 3 3 3 3 4 4 4
3 3 4 4 4 4 4 4 4 4 5 5 5 5 4 4 4 4 4 5 6 7 6 5 5 6 4 4 4 4 4 5 5 5 4 4 4 4 4 4 5 4 4 4
3 3 3 3 3 3 3 3 4 5 4 5 6 5 5 5 4 4 4 4 5 5 4 4 4 4 4 4 4 4 4 4 4 4 4 4 4 4 4 5 5 5 5 5
Wind_Direction
256 277 306 322 323 342 117 201 218 257 263 297 314 311 317 325 331 338 345 347 346 343 341 341 341 339 340 339 340 338 334 326 317 310 307 305 301 299 297 290 277 266 255 265
302 299 329 330 335 328 317 301 279 298 292 302 311 316 326 329 333 336 338 338 337 336 337 336 334 333 335 335 335 334 333 327 321 320 319 312 305 300 298 299 291 274 257 258
299 322 341 320 312 314 274 282 237 263 276 315 326 323 319 318 324 328 329 330 330 330 328 326 324 326 328 327 329 332 328 326 329 329 325 320 316 313 301 297 289 268 260 252
303 3 294 256 305 319 260 275 280 277 294 306 303 302 296 305 324 326 327 326 325 324 323 323 322 324 325 326 329 329 328 327 324 322 315 310 309 306 296 290 277 263 260 256
17 291 280 291 303 299 255 283 278 282 302 314 320 318 302 317 332 318 314 314 314 315 315 318 319 322 325 325 328 329 326 322 318 314 308 305 299 294 291 287 284 272 260 256
145 233 260 266 288 295 140 286 284 289 299 313 336 327 302 320 322 317 317 317 318 320 322 323 322 322 324 324 326 322 318 316 313 310 304 295 288 289 289 284 281 279 279 259
203 232 265 260 282 62 140 267 296 283 286 295 281 262 288 307 312 314 314 317 322 325 326 322 321 324 323 322 317 314 317 319 317 312 303 293 288 286 282 278 276 272 275 268
179 217 261 242 127 184 233 273 281 282 282 279 281 289 299 306 312 317 321 324 327 327 324 326 330 331 328 322 318 321 324 324 320 316 308 303 298 294 286 266 261 261 266 272
198 220 247 198 204 235 229 252 267 270 276 280 288 295 303 308 311 315 318 321 325 324 324 330 334 333 326 321 326 329 331 328 322 316 311 307 299 291 287 267 245 251 251 252
252 261 260 253 254 266 250 254 266 268 273 276 283 292 300 305 309 313 317 319 323 327 327 328 330 331 325 325 330 333 331 328 328 325 319 317 308 296 286 269 250 244 243 245
256 275 296 271 250 255 267 275 280 282 274 269 278 289 293 298 302 307 313 318 321 321 320 321 326 328 328 332 334 333 331 330 331 328 322 320 315 307 297 284 265 251 238 239
240 242 235 262 264 260 261 267 272 279 286 286 276 282 290 293 296 301 308 315 319 319 319 320 324 325 327 329 333 333 333 333 331 331 329 328 329 333 334 323 321 306 288 278
242 257 246 264 275 267 259 267 275 274 275 286 287 280 286 291 297 302 308 314 314 312 313 315 318 320 324 328 332 333 329 328 330 333 334 335 336 337 334 342 347 350 342 319
260 281 274 273 275 285 284 286 288 290 288 287 292 297 297 297 302 307 307 308 309 312 315 316 317 318 320 327 330 330 327 326 329 329 332 331 332 330 331 339 344 349 351 350
276 261 258 280 290 298 303 309 310 306 305 307 307 307 308 306 304 303 305 310 315 318 318 320 320 318 321 325 326 325 326 328 329 330 330 331 333 337 343 344 342 339 340 341
295 288 279 284 289 297 304 303 299 301 306 306 308 306 303 300 301 305 311 316 319 317 316 316 314 315 321 324 324 324 324 327 333 333 330 333 341 347 347 347 347 346 342 338
283 293 295 298 294 293 289 284 283 291 298 299 299 301 306 310 312 314 316 316 309 305 311 315 314 318 323 322 320 319 320 324 328 329 334 337 342 344 343 344 343 341 337 340
245 255 262 267 276 287 295 296 293 293 292 294 301 306 308 309 307 308 311 316 319 319 321 319 319 321 322 321 321 318 321 326 333 335 338 341 337 335 338 338 334 332 338 347
266 268 275 277 276 277 289 297 299 299 300 304 305 301 297 297 298 302 308 316 321 320 322 324 328 332 328 328 332 329 331 334 337 338 338 337 342 346 345 343 343 344 342 342
281 281 284 290 291 284 286 292 297 300 301 302 302 302 303 303 303 305 307 304 301 300 309 320 323 323 324 328 336 332 331 332 334 334 338 340 339 339 339 337 338 337 336 337
277 282 286 290 292 291 286 288 293 296 299 298 293 293 295 299 303 304 305 306 306 310 316 322 327 325 324 328 330 334 332 328 329 330 332 332 332 331 331 330 329 328 328 328
266 273 281 288 292 294 294 292 287 288 295 296 293 293 297 303 306 304 289 286 302 319 324 316 318 324 330 331 334 332 327 325 325 326 326 323 322 322 322 321 320 319 317 315
264 269 276 281 283 287 295 296 290 288 289 292 294 295 293 294 297 301 305 307 309 318 323 315 322 327 330 338 338 332 328 326 322 320 317 316 315 313 312 311 309 308 306 305
269 274 279 287 291 293 296 297 295 292 287 287 289 289 292 297 296 282 283 307 318 319 319 321 328 330 334 345 334 328 322 316 313 310 308 308 308 307 305 304 302 300 299 297
270 274 278 287 288 285 288 295 300 300 299 299 300 298 293 283 285 298 301 304 314 320 320 323 327 330 336 328 323 317 312 309 308 308 304 304 303 300 299 297 295 295 294 292
267 272 273 270 271 279 288 294 298 301 306 308 308 305 302 299 293 296 300 306 309 317 320 315 317 321 320 315 311 309 306 309 313 313 307 303 300 297 294 294 293 291 291 291
285 288 289 289 289 287 289 292 295 300 302 300 300 304 307 308 307 307 306 308 309 311 310 310 313 313 311 310 307 306 306 305 304 304 304 300 298 296 295 292 293 294 294 293
Height
1539 1536 1535 1534 1532 1530 1532 1533 1534 1531 1530 1527 1525 1522 1519 1516 1512 1508 1504 1500 1497 1493 1490 1487 1484 1482 1480 1478 1476 1475 1474 1473 1473 1473 1473 1473 1474 1474 1475 1476 1478 1479 1481 1482
1539 1534 1533 1532 1531 1530 1531 1532 1533 1530 1529 1526 1524 1521 1518 1514 1511 1507 1504 1500 1496 1493 1489 1486 1483 1480 1478 1476 1474 1473 1471 1470 1469 1469 1469 1469 1470 1470 1471 1472 1473 1475 1476 1478
1542 1538 1534 1536 1535 1533 1534 1533 1533 1533 1530 1525 1522 1519 1517 1514 1511 1507 1503 1500 1496 1492 1489 1485 1482 1479 1477 1474 1472 1470 1469 1467 1466 1465 1465 1466 1466 1466 1467 1468 1469 1470 1472 1473
1545 1543 1548 1539 1534 1533 1533 1532 1532 1530 1527 1524 1522 1518 1515 1513 1510 1506 1502 1498 1494 1491 1488 1484 1481 1478 1475 1472 1470 1468 1466 1464 1463 1462 1462 1462 1462 1462 1463 1464 1465 1466 1467 1469
1548 1550 1545 1537 1533 1533 1534 1531 1529 1528 1525 1522 1520 1515 1512 1511 1509 1506 1502 1498 1494 1490 1487 1483 1480 1476 1473 1470 1467 1465 1463 1461 1460 1459 1458 1458 1458 1459 1459 1460 1460 1462 1463 1464
1551 1550 1547 1538 1533 1530 1533 1532 1526 1525 1523 1521 1519 1517 1512 1508 1506 1502 1499 1496 1492 1488 1484 1481 1478 1474 1471 1468 1465 1462 1460 1457 1456 1455 1455 1455 1455 1455 1456 1456 1456 1457 1458 1459
1553 1552 1544 1534 1531 1531 1537 1532 1525 1523 1522 1520 1518 1517 1512 1507 1504 1500 1497 1493 1489 1486 1482 1478 1475 1472 1469 1466 1463 1460 1457 1455 1453 1452 1452 1451 1451 1452 1452 1452 1452 1453 1454 1455
1552 1552 1544 1530 1530 1532 1530 1525 1523 1521 1520 1518 1515 1512 1509 1505 1501 1498 1494 1490 1487 1483 1479 1476 1473 1470 1466 1464 1461 1458 1455 1453 1451 1450 1449 1448 1448 1448 1448 1448 1448 1449 1450 1450
1541 1537 1529 1527 1526 1525 1524 1522 1521 1519 1517 1515 1512 1509 1506 1502 1499 1495 1492 1488 1485 1481 1477 1474 1471 1468 1465 1462 1459 1456 1453 1450 1449 1447 1446 1445 1445 1444 1444 1444 1445 1445 1446 1446
1534 1528 1525 1524 1523 1522 1521 1520 1518 1516 1514 1512 1509 1506 1503 1499 1496 1493 1489 1486 1483 1479 1475 1471 1469 1466 1463 1460 1457 1454 1451 1448 1446 1445 1443 1442 1442 1441 1441 1440 1441 1441 1442 1442
1530 1525 1523 1520 1520 1519 1518 1516 1514 1512 1511 1508 1506 1502 1500 1496 1493 1490 1487 1484 1481 1477 1473 1470 1467 1464 1461 1458 1455 1452 1449 1446 1444 1442 1440 1439 1438 1438 1437 1437 1437 1438 1438 1439
1525 1521 1521 1518 1516 1516 1514 1512 1510 1508 1506 1504 1502 1499 1496 1493 1491 1488 1485 1481 1478 1475 1471 1468 1465 1462 1459 1457 1454 1451 1447 1445 1443 1440 1439 1437 1435 1435 1434 1434 1434 1435 1435 1436
1519 1518 1517 1515 1514 1512 1511 1509 1507 1505 1502 1500 1498 1496 1493 1490 1488 1485 1482 1479 1476 1472 1469 1466 1463 1460 1458 1455 1452 1449 1446 1444 1441 1439 1437 1435 1434 1432 1431 1431 1432 1432 1432 1432
1517 1516 1513 1512 1511 1509 1508 1506 1503 1501 1499 1497 1495 1492 1490 1487 1485 1482 1479 1476 1473 1470 1467 1464 1461 1458 1456 1453 1451 1448 1445 1442 1440 1437 1435 1433 1432 1430 1429 1428 1428 1428 1429 1429
1514 1513 1511 1509 1507 1506 1504 1502 1500 1497 1495 1493 1491 1489 1486 1484 1481 1479 1476 1473 1470 1467 1464 1462 1459 1456 1454 1452 1449 1446 1443 1441 1438 1436 1434 1432 1430 1429 1428 1427 1426 1426 1426 1426
1511 1509 1508 1506 1504 1503 1501 1498 1496 1494 1492 1490 1488 1486 1483 1481 1478 1476 1473 1470 1467 1464 1461 1459 1456 1454 1452 1450 1447 1444 1442 1440 1437 1435 1433 1431 1429 1428 1426 1426 1425 1424 1425 1425
1508 1506 1504 1503 1501 1499 1498 1496 1494 1492 1490 1488 1485 1483 1481 1478 1475 1473 1470 1468 1465 1462 1459 1457 1454 1452 1450 1447 1445 1443 1440 1438 1436 1434 1432 1430 1429 1427 1426 1425 1425 1424 1424 1424
1505 1504 1502 1501 1499 1497 1495 1493 1491 1489 1487 1485 1483 1481 1478 1475 1473 1470 1468 1465 1462 1459 1457 1455 1452 1450 1448 1445 1443 1441 1439 1437 1435 1433 1431 1430 1428 1427 1426 1425 1425 1424 1423 1423
1502 1501 1499 1498 1496 1494 1492 1490 1488 1486 1484 1482 1480 1478 1475 1473 1471 1468 1465 1463 1459 1457 1455 1453 1451 1448 1446 1444 1442 1440 1438 1436 1434 1433 1431 1430 1428 1427 1426 1425 1424 1423 1423 1422
1499 1498 1496 1494 1493 1491 1489 1488 1486 1484 1482 1480 1477 1475 1473 1470 1468 1466 1463 1460 1458 1455 1453 1451 1448 1446 1444 1442 1440 1438 1436 1435 1433 1432 1430 1429 1427 1426 1425 1424 1423 1423 1422 1422
1496 1495 1493 1492 1490 1489 1487 1485 1483 1481 1479 1477 1474 1472 1470 1468 1466 1463 1460 1457 1456 1454 1451 1449 1446 1444 1442 1440 1439 1437 1435 1433 1432 1430 1429 1427 1426 1425 1424 1423 1422 1422 1421 1421
1494 1492 1491 1489 1487 1486 1484 1482 1480 1478 1476 1474 1471 1469 1467 1465 1462 1460 1458 1456 1453 1451 1449 1446 1444 1443 1441 1439 1437 1435 1433 1432 1430 1429 1427 1426 1425 1424 1423 1422 1421 1421 1420 1419
1491 1489 1488 1486 1484 1483 1481 1479 1477 1475 1473 1470 1468 1466 1464 1462 1460 1457 1454 1453 1451 1448 1446 1444 1442 1441 1439 1437 1435 1433 1432 1430 1429 1427 1426 1425 1424 1422 1421 1421 1420 1419 1418 1418
1488 1486 1485 1483 1481 1479 1477 1476 1474 1472 1470 1467 1465 1463 1461 1459 1456 1455 1453 1450 1448 1446 1444 1442 1440 1438 1436 1434 1433 1431 1430 1428 1427 1426 1424 1423 1422 1421 1420 1419 1418 1417 1417 1416
1485 1483 1482 1480 1478 1476 1474 1472 1470 1468 1466 1464 1462 1460 1458 1456 1454 1452 1450 1447 1445 1443 1441 1440 1438 1436 1434 1432 1431 1429 1428 1427 1425 1424 1422 1421 1420 1419 1418 1417 1416 1415 1414 1414
1481 1480 1478 1477 1475 1473 1471 1469 1467 1465 1463 1461 1459 1457 1455 1453 1451 1449 1447 1445 1443 1441 1439 1437 1435 1434 1432 1431 1429 1428 1426 1425 1423 1422 1420 1419 1418 1417 1416 1415 1414 1413 1412 1410
1478 1476 1475 1473 1471 1470 1468 1466 1464 1462 1460 1458 1456 1454 1452 1450 1448 1446 1444 1442 1440 1438 1437 1435 1433 1432 1430 1428 1427 1425 1424 1422 1421 1419 1418 1416 1415 1414 1413 1411 1410 1409 1408 1407